Wind_Speed
14 14 14 14 15 15 14 14 15 14 14 14 14 14 14 14 15 15 14 14 13 13 13 12 12 13 12 13 13 12 11 12 11 10 10 9 9 10 10 10 10 10 10
14 15 14 15 15 15 15 15 15 14 14 14 14 14 15 15 15 14 14 14 14 14 13 12 13 13 13 13 13 12 12 11 11 10 10 10 10 10 10 10 10 10 10
15 15 14 14 14 14 15 16 15 15 15 15 15 16 15 15 15 14 14 14 14 13 13 13 13 13 13 13 12 12 11 11 12 11 11 11 10 10 11 11 11 11 11
15 15 15 15 14 14 14 15 15 16 16 15 16 16 15 15 15 15 14 14 14 14 14 14 14 14 13 13 13 12 12 12 12 12 12 11 11 11 11 11 11 11 12
15 15 15 15 14 14 15 15 14 15 15 15 15 15 15 14 14 14 14 14 14 14 14 14 14 14 13 13 12 12 12 12 12 13 12 12 12 12 12 12 12 12 12
15 15 15 16 16 15 15 14 14 14 15 14 15 15 15 15 14 13 14 14 14 14 14 14 14 14 14 14 13 13 13 13 13 13 12 12 13 13 13 13 12 12 12
16 16 16 16 16 16 15 14 14 14 14 15 15 15 15 15 15 14 14 14 14 14 14 15 14 15 15 15 14 13 14 14 14 13 13 13 13 13 13 13 13 13 12
15 15 15 15 15 15 15 14 15 15 15 14 15 15 15 16 15 14 15 15 15 15 15 15 15 15 15 15 15 15 15 14 14 14 14 14 14 13 13 13 13 13 13
14 14 15 15 15 15 15 15 15 15 15 15 15 15 15 15 15 14 15 15 15 15 15 15 15 15 15 15 15 14 14 14 14 14 14 14 14 13 13 12 12 12 13
14 13 14 14 14 15 15 15 16 16 16 16 16 15 15 16 16 15 15 15 16 15 15 16 16 15 15 15 15 15 15 15 14 14 14 14 14 13 13 13 12 13 13
14 14 14 14 15 15 16 16 16 17 17 16 16 15 15 16 16 16 16 16 16 16 16 17 16 15 16 15 15 15 15 15 14 14 14 14 14 13 13 13 13 14 14
14 14 14 15 15 15 16 16 16 16 16 16 16 16 16 16 16 17 17 17 17 17 17 17 17 16 16 15 15 15 15 15 14 14 14 15 15 14 14 14 14 14 13
14 14 14 14 14 15 16 16 16 16 16 16 16 16 16 15 15 16 16 16 17 17 16 17 17 16 16 16 16 15 15 15 15 14 14 14 14 14 14 13 13 13 13
15 15 15 14 14 15 16 16 16 16 16 16 15 16 16 16 16 15 16 16 16 16 16 16 16 16 17 17 16 16 15 15 14 14 13 13 14 13 13 13 13 12 12
15 15 15 14 15 15 15 16 16 16 16 16 16 15 15 16 16 16 16 15 15 15 16 17 16 16 16 16 16 16 15 15 14 14 14 14 13 14 13 13 12 12 12
15 15 15 15 15 15 15 16 16 16 16 16 16 15 15 15 15 16 16 15 15 16 16 16 16 16 16 16 16 16 15 15 15 15 15 14 14 14 14 13 13 13 14
16 16 15 15 15 15 15 15 15 16 16 16 16 16 15 15 15 15 15 16 16 15 15 16 15 16 16 16 16 16 15 15 15 15 15 14 14 14 14 14 14 14 15
16 16 16 16 15 15 15 15 15 15 16 16 15 15 16 16 16 15 14 14 15 15 15 15 15 15 16 16 16 16 16 16 16 16 16 15 14 14 15 15 15 15 15
16 16 17 16 15 15 15 15 15 15 15 15 14 15 15 14 14 14 14 14 15 15 15 14 14 15 15 16 16 16 16 16 16 16 16 15 15 15 16 16 15 15 16
15 15 16 16 15 15 15 15 14 14 14 14 14 14 14 14 14 14 14 14 14 14 14 14 14 14 15 16 16 16 16 16 16 16 15 15 15 16 16 16 16 16 16
16 16 16 16 16 15 15 14 14 13 14 14 14 14 14 14 14 14 14 14 14 14 14 14 14 14 15 16 16 17 17 17 16 16 16 16 17 17 16 16 16 16 17
17 17 16 16 16 16 16 15 15 14 14 15 14 14 15 15 15 15 14 14 14 14 14 14 14 15 16 16 17 17 17 17 17 17 17 17 18 18 17 18 18 18 18
18 17 17 17 17 17 17 16 16 16 16 15 15 15 16 16 15 15 15 15 14 14 14 14 15 15 16 16 16 17 17 17 17 18 18 19 19 18 19 19 19 19 19
19 19 18 18 18 17 17 17 17 17 16 16 16 16 17 17 17 16 16 15 15 15 16 15 15 15 16 16 17 17 18 18 19 20 20 20 20 19 19 20 20 20 20
20 20 19 19 19 18 18 18 18 17 18 18 17 17 18 18 18 17 17 17 17 17 17 16 16 16 16 17 18 19 19 19 20 20 20 20 19 19 20 20 21 22 22
21 21 20 20 20 20 19 19 19 19 19 18 18 18 18 18 19 18 18 18 18 18 18 18 18 18 18 18 18 19 20 20 20 20 20 20 20 20 21 21 22 23 24
Wind_Direction
264 267 269 270 266 262 258 256 256 255 254 251 253 257 257 259 260 260 258 259 263 260 259 262 265 269 274 277 276 277 279 278 280 284 287 288 287 286 290 293 294 292 293
264 265 267 268 267 262 256 255 257 253 253 251 253 258 259 261 260 260 259 260 262 260 262 263 266 271 275 275 274 274 275 277 280 283 283 283 284 283 288 291 292 293 293
264 265 264 265 265 261 258 256 255 253 255 252 253 257 258 258 259 259 260 262 262 259 261 263 267 269 273 274 273 271 272 276 279 281 281 281 284 286 288 289 291 291 290
263 263 262 265 264 260 258 258 255 254 254 256 257 257 255 256 256 257 260 262 261 261 262 262 265 267 270 271 273 272 274 276 278 280 281 282 285 288 288 288 289 289 288
266 264 262 263 262 258 256 258 257 255 254 256 257 258 255 256 256 258 259 259 260 260 260 261 265 269 271 270 270 273 274 276 277 278 278 280 283 285 287 287 287 288 288
267 266 263 261 260 256 258 259 258 257 255 257 258 258 257 255 257 258 258 259 259 259 260 262 266 268 269 273 274 273 273 273 274 277 278 278 279 280 283 284 286 287 286
266 266 265 263 260 257 256 257 256 254 255 256 258 259 258 256 256 257 259 259 258 259 260 263 266 268 269 273 275 276 276 274 274 276 278 279 280 280 279 280 281 282 282
264 263 263 262 260 256 253 254 256 254 255 257 259 261 260 257 256 258 259 258 258 259 261 263 266 268 268 270 273 275 277 275 274 276 277 277 279 278 276 277 278 278 279
266 264 262 260 259 255 253 252 255 254 254 256 259 261 260 258 258 259 259 259 261 262 260 260 263 266 267 269 272 274 276 275 275 274 275 276 276 276 274 275 279 279 279
268 265 265 264 260 256 253 252 255 255 255 258 260 259 259 259 259 259 259 260 261 263 260 260 263 266 267 270 271 273 276 277 275 275 273 274 275 277 275 276 277 278 279
267 266 267 265 262 257 254 254 256 256 255 255 256 257 259 261 259 258 258 260 263 263 262 262 264 266 268 267 269 272 275 276 274 274 272 273 276 278 277 277 277 276 278
266 265 267 265 262 259 256 256 258 259 258 254 255 256 259 259 257 256 258 260 262 262 263 264 264 266 266 266 270 273 274 274 274 273 273 273 274 275 277 277 276 276 278
265 264 264 264 264 262 258 258 259 259 259 258 258 258 258 258 257 258 259 260 261 261 262 264 265 266 267 268 269 270 273 272 274 274 274 273 272 275 277 276 274 274 276
264 263 263 265 264 263 261 263 262 259 260 261 261 261 259 259 259 259 259 259 261 262 261 264 267 267 267 266 264 266 270 272 271 271 273 274 274 275 276 273 272 274 276
262 262 263 264 264 264 264 265 263 261 261 261 261 262 262 260 259 258 257 259 262 263 266 268 269 268 268 264 264 265 270 269 268 270 272 273 274 276 273 271 271 273 276
262 263 264 265 265 265 266 264 263 262 262 262 261 263 263 262 262 259 258 260 262 264 267 269 269 268 266 264 264 265 264 265 266 269 273 271 271 274 274 272 275 278 279
262 262 264 266 268 265 265 265 262 260 261 261 258 259 261 261 261 261 259 260 262 265 265 268 269 267 264 263 263 263 266 268 269 270 272 272 273 275 274 274 278 280 280
261 261 262 264 267 263 263 265 262 260 261 261 258 256 259 260 259 260 261 264 264 266 267 268 267 267 264 264 265 264 265 268 269 269 269 270 272 273 275 277 278 279 282
261 260 260 262 264 262 262 263 262 260 260 259 260 260 257 256 259 263 265 266 265 268 268 266 265 268 269 266 265 266 267 269 268 266 266 268 272 274 276 279 281 281 281
259 259 258 260 261 262 262 263 260 259 257 256 257 259 258 260 262 264 266 266 264 267 265 266 268 270 272 271 267 266 268 270 268 270 268 268 270 274 276 279 281 283 283
257 257 258 258 257 259 260 259 258 257 256 256 257 259 261 262 263 265 266 264 265 265 263 265 268 271 273 272 270 269 269 269 268 269 269 269 271 274 275 276 280 282 285
256 257 257 256 257 257 257 256 256 255 255 256 258 258 259 262 263 266 266 265 266 264 264 268 272 274 276 275 272 270 270 268 268 268 269 269 271 272 274 276 280 281 285
256 256 258 258 258 256 255 254 255 255 255 257 258 258 258 261 264 265 264 264 266 264 265 271 275 276 276 277 274 272 271 270 268 267 269 270 272 272 274 277 280 281 284
254 255 256 256 256 256 255 256 255 256 254 256 257 259 259 259 260 262 263 264 266 266 265 268 273 277 276 274 273 275 273 271 271 270 269 269 270 271 274 277 279 281 284
253 254 255 255 255 257 257 256 254 253 254 257 258 259 259 258 258 259 261 263 265 267 265 267 270 273 274 274 275 276 276 275 275 274 271 269 270 272 276 279 283 284 285
254 255 256 257 256 259 259 258 256 256 256 257 259 260 260 258 258 259 261 265 266 266 265 266 270 272 273 274 276 279 280 278 278 278 277 275 274 275 278 280 283 284 285
Height
5868 5868 5868 5868 5868 5868 5868 5868 5868 5869 5869 5870 5871 5872 5872 5872 5873 5873 5873 5873 5873 5873 5874 5874 5874 5874 5873 5873 5872 5871 5871 5870 5870 5869 5868 5867 5866 5865 5864 5863 5862 5860 5859
5865 5865 5864 5864 5864 5864 5865 5865 5865 5866 5866 5867 5868 5869 5869 5869 5870 5870 5870 5870 5870 5870 5871 5871 5871 5871 5870 5870 5869 5869 5868 5867 5867 5866 5866 5865 5865 5863 5862 5860 5859 5858 5857
5861 5861 5861 5861 5861 5861 5862 5862 5862 5862 5863 5864 5864 5865 5866 5866 5866 5867 5867 5867 5867 5867 5868 5868 5868 5868 5867 5867 5866 5866 5865 5865 5864 5864 5863 5862 5862 5861 5859 5858 5857 5856 5854
5857 5857 5857 5857 5857 5858 5858 5858 5859 5859 5860 5861 5861 5862 5862 5863 5863 5863 5864 5864 5864 5864 5865 5865 5865 5865 5864 5864 5863 5863 5863 5862 5862 5861 5860 5860 5859 5858 5857 5855 5854 5853 5852
5853 5853 5853 5853 5854 5854 5854 5855 5856 5856 5857 5857 5858 5859 5859 5860 5860 5860 5861 5861 5861 5861 5861 5861 5861 5861 5861 5861 5860 5860 5860 5859 5859 5858 5857 5856 5855 5855 5854 5853 5851 5850 5849
5848 5849 5849 5849 5850 5850 5851 5852 5852 5853 5853 5854 5855 5855 5856 5856 5857 5857 5857 5858 5858 5858 5858 5858 5858 5858 5858 5858 5857 5857 5857 5856 5855 5855 5854 5853 5852 5851 5850 5849 5848 5847 5846
5844 5845 5845 5845 5846 5847 5847 5848 5849 5849 5850 5851 5852 5852 5853 5853 5853 5854 5854 5854 5855 5855 5855 5855 5855 5855 5854 5854 5854 5853 5853 5853 5852 5851 5850 5850 5848 5848 5847 5846 5845 5844 5843
5840 5841 5841 5842 5842 5843 5844 5845 5845 5846 5847 5847 5848 5848 5849 5849 5849 5850 5850 5850 5851 5851 5851 5851 5851 5851 5851 5850 5850 5850 5849 5849 5848 5847 5847 5846 5845 5844 5843 5842 5842 5840 5840
5836 5837 5837 5837 5838 5839 5840 5841 5842 5842 5843 5844 5844 5845 5845 5845 5846 5846 5846 5846 5847 5847 5847 5847 5847 5847 5847 5846 5846 5846 5845 5845 5844 5844 5843 5842 5841 5840 5839 5838 5838 5837 5836
5832 5832 5833 5833 5834 5835 5836 5837 5838 5839 5840 5840 5841 5841 5841 5842 5842 5842 5842 5842 5843 5843 5843 5843 5843 5843 5843 5842 5842 5842 5841 5841 5840 5840 5839 5838 5837 5836 5835 5835 5834 5833 5832
5828 5828 5829 5829 5830 5831 5832 5833 5834 5835 5835 5836 5837 5837 5837 5838 5838 5838 5838 5839 5839 5839 5839 5839 5839 5839 5839 5838 5838 5838 5837 5837 5836 5835 5835 5834 5833 5833 5832 5831 5830 5829 5828
5824 5824 5825 5825 5826 5827 5828 5829 5830 5830 5831 5832 5832 5833 5833 5833 5834 5834 5834 5835 5834 5834 5834 5835 5835 5835 5834 5834 5834 5834 5833 5833 5832 5832 5831 5830 5829 5829 5828 5826 5826 5825 5824
5820 5820 5821 5822 5822 5823 5824 5825 5825 5826 5827 5827 5828 5828 5829 5829 5829 5829 5830 5830 5830 5830 5830 5830 5830 5830 5830 5830 5830 5829 5829 5828 5828 5827 5827 5826 5825 5825 5823 5822 5821 5821 5820
5816 5817 5817 5818 5818 5819 5820 5820 5821 5822 5822 5823 5823 5824 5824 5825 5825 5825 5825 5825 5826 5826 5826 5826 5826 5825 5825 5825 5825 5825 5824 5824 5823 5823 5823 5822 5821 5821 5819 5818 5817 5817 5816
5812 5813 5813 5814 5814 5815 5815 5816 5816 5817 5818 5818 5819 5819 5820 5820 5820 5820 5821 5821 5821 5821 5821 5821 5821 5821 5821 5821 5820 5820 5820 5819 5819 5819 5818 5818 5817 5816 5816 5815 5814 5813 5812
5808 5809 5809 5810 5810 5810 5811 5811 5812 5812 5813 5814 5814 5815 5815 5815 5816 5816 5816 5816 5817 5817 5817 5817 5816 5816 5816 5816 5816 5816 5815 5815 5814 5814 5814 5813 5813 5812 5812 5811 5810 5809 5809
5804 5804 5805 5805 5805 5806 5806 5807 5807 5808 5809 5809 5810 5810 5811 5811 5811 5812 5812 5812 5812 5812 5812 5812 5812 5811 5811 5811 5811 5811 5810 5810 5810 5809 5809 5809 5808 5808 5807 5807 5806 5805 5804
5799 5800 5800 5801 5801 5802 5802 5802 5803 5804 5804 5805 5805 5806 5807 5807 5807 5807 5808 5808 5808 5808 5807 5807 5807 5807 5807 5807 5806 5806 5806 5805 5805 5805 5804 5804 5804 5803 5803 5803 5802 5801 5800
5794 5795 5795 5796 5797 5797 5798 5798 5799 5799 5800 5800 5801 5801 5802 5803 5803 5803 5803 5803 5803 5803 5803 5803 5803 5803 5802 5802 5801 5801 5801 5801 5800 5800 5800 5799 5799 5799 5798 5798 5797 5796 5795
5789 5790 5791 5791 5792 5792 5793 5794 5794 5795 5796 5796 5797 5798 5798 5798 5799 5799 5799 5799 5799 5799 5799 5799 5799 5798 5798 5797 5797 5797 5796 5796 5796 5795 5795 5795 5794 5794 5793 5793 5792 5791 5790
5784 5785 5786 5786 5787 5788 5788 5789 5790 5791 5791 5792 5793 5793 5794 5794 5795 5795 5795 5795 5795 5795 5795 5795 5795 5794 5793 5793 5792 5792 5792 5791 5791 5791 5791 5790 5790 5789 5789 5788 5788 5787 5785
5778 5779 5780 5781 5782 5783 5784 5784 5785 5786 5787 5787 5788 5789 5790 5790 5790 5791 5791 5791 5791 5791 5791 5791 5790 5790 5789 5788 5787 5787 5787 5786 5786 5786 5786 5785 5785 5784 5784 5783 5782 5781 5780
5773 5774 5775 5776 5776 5777 5778 5779 5780 5781 5782 5783 5783 5784 5785 5785 5786 5786 5786 5786 5787 5787 5787 5786 5786 5785 5784 5784 5783 5782 5782 5781 5781 5780 5780 5780 5779 5779 5778 5777 5776 5775 5774
5767 5768 5769 5770 5771 5772 5773 5774 5775 5776 5777 5778 5779 5779 5780 5780 5781 5781 5782 5782 5782 5782 5782 5782 5781 5781 5780 5779 5779 5778 5777 5776 5775 5775 5774 5774 5773 5773 5772 5771 5770 5769 5768
5760 5761 5763 5764 5765 5766 5767 5768 5769 5770 5771 5772 5773 5774 5774 5775 5775 5776 5777 5777 5777 5777 5777 5777 5776 5776 5775 5775 5774 5773 5772 5771 5770 5769 5769 5768 5768 5767 5766 5765 5764 5763 5761
5753 5755 5756 5757 5759 5760 5761 5762 5763 5764 5765 5766 5767 5768 5769 5769 5770 5770 5771 5771 5771 5771 5771 5771 5771 5770 5770 5769 5769 5768 5767 5766 5765 5764 5763 5762 5762 5761 5760 5759 5758 5756 5755